Wind_Speed
43 39 26 28 24 30 32 35 35 28 31 32 19 26 26 21 23 23 25 22 24 26 25 26 27 28 31 34 37 39 38 36 40 40 41 40 38 39 40 42 42 43 43 44
49 44 40 35 33 28 27 23 31 26 22 17 23 23 25 23 37 29 31 32 31 31 29 27 27 29 29 30 33 36 37 39 38 37 37 38 38 40 41 41 41 41 43 46
51 45 40 46 39 29 31 27 29 25 25 25 27 30 28 38 39 41 33 31 28 33 36 31 30 31 29 30 32 32 31 33 34 36 36 37 38 38 38 39 41 43 46 50
49 42 51 45 44 41 45 36 32 32 30 26 27 28 29 33 25 24 27 24 29 33 37 38 35 35 35 35 33 33 33 34 33 34 35 36 36 37 39 41 44 47 50 52
54 52 49 46 39 39 39 31 28 28 27 24 19 29 35 27 24 29 28 28 33 34 37 39 39 38 37 35 35 35 34 34 35 37 36 37 38 40 42 46 49 51 52 54
50 52 54 45 38 36 33 35 24 25 24 28 33 38 28 31 26 29 31 31 31 33 34 34 34 34 34 34 35 35 35 36 38 37 37 39 41 44 47 50 52 53 55 57
51 49 46 43 34 35 37 23 16 26 26 29 39 33 33 32 31 31 32 32 31 32 31 31 31 31 31 32 33 34 36 37 37 38 40 42 46 49 52 55 56 56 58 60
44 49 46 37 40 41 29 17 20 30 30 33 36 36 33 32 32 32 33 33 31 30 30 30 30 30 30 31 33 35 36 37 39 42 44 48 51 55 57 57 58 58 61 63
48 46 47 43 40 32 23 27 27 24 27 37 40 36 35 33 33 34 34 33 31 29 30 30 30 30 31 33 34 36 38 41 44 47 50 54 57 57 60 61 59 59 60 62
42 47 41 39 34 34 40 37 27 33 38 35 39 38 38 34 36 36 36 35 33 32 32 32 32 34 33 36 38 40 43 46 50 53 56 58 59 57 62 60 58 58 61 64
39 43 46 45 36 23 39 42 39 35 38 37 37 33 34 35 37 37 37 37 36 36 37 37 38 39 41 43 45 46 48 51 54 57 59 60 58 61 67 64 63 64 63 65
41 33 38 36 35 41 35 38 38 39 41 43 44 39 35 36 38 39 40 39 40 41 42 42 43 45 48 50 50 53 55 57 61 62 62 63 63 64 65 69 71 71 70 71
40 37 40 42 38 42 44 45 42 45 39 37 40 37 36 36 36 38 40 41 43 44 46 47 49 51 52 54 55 58 62 65 64 63 63 66 67 68 71 77 73 70 73 76
41 43 44 41 43 41 44 44 46 46 44 45 44 40 39 37 38 40 44 46 48 47 50 52 54 56 57 59 60 63 64 65 63 60 56 63 70 73 74 74 69 73 78 78
46 46 40 35 38 37 36 38 42 44 51 54 46 40 39 41 45 46 42 45 48 50 52 52 53 54 58 63 64 63 64 62 62 62 69 69 72 70 69 75 79 82 85 85
31 30 32 31 34 34 38 43 43 41 41 44 41 46 47 45 45 45 49 50 49 48 50 49 56 59 61 61 61 64 63 64 57 61 69 71 71 68 71 77 81 84 85 86
28 28 29 32 29 32 36 35 33 34 36 35 37 40 43 44 47 50 52 51 52 50 52 53 55 56 66 66 64 63 68 66 66 66 70 70 71 73 77 81 82 83 85 86
30 28 30 33 34 36 41 43 43 46 47 47 47 49 49 47 49 51 50 50 49 51 56 63 69 67 67 66 66 66 61 64 70 73 72 72 74 78 81 81 82 85 86 87
28 29 31 35 40 42 45 45 44 44 42 42 42 43 47 51 53 52 50 49 52 59 62 63 61 58 58 59 61 62 66 69 71 72 74 76 79 82 83 83 84 87 88 88
34 38 41 44 46 47 47 46 45 45 43 43 46 47 50 50 48 49 51 55 55 56 57 58 58 58 56 57 62 66 68 70 72 75 77 80 82 83 84 86 87 88 88 87
33 31 35 38 40 41 42 41 42 43 44 44 45 48 50 52 50 49 51 55 56 55 54 55 54 57 59 62 66 69 72 74 78 80 81 82 83 86 88 90 90 89 88 87
29 29 32 33 35 36 39 41 43 48 49 50 50 50 47 47 48 50 52 52 55 54 54 58 62 65 67 70 73 75 78 81 83 83 84 86 89 90 90 90 90 89 90 89
28 30 31 33 35 37 38 40 40 40 41 40 40 43 47 49 52 52 51 52 55 58 62 65 67 70 71 75 78 81 83 84 86 88 90 92 91 91 92 92 92 90 89 87
32 32 32 33 35 37 39 40 40 41 42 43 45 48 50 52 54 55 57 59 62 65 68 71 73 74 77 79 82 84 87 89 91 92 92 92 93 93 92 90 87 85 84 82
34 34 36 37 39 40 42 44 47 47 47 49 51 53 56 58 60 62 65 67 69 71 72 75 77 79 82 85 87 88 90 90 90 91 91 90 89 88 85 83 82 82 82 82
37 39 42 43 45 46 47 48 50 52 53 56 59 62 64 66 68 70 73 74 76 78 80 81 83 84 84 86 87 87 88 88 88 86 84 83 82 82 82 83 83 83 82 79
44 45 47 49 50 52 54 56 58 60 62 62 64 66 67 69 71 73 75 76 78 80 81 81 82 83 83 82 82 82 81 80 79 79 79 80 81 81 81 82 82 80 75 68
Wind_Direction
225 219 229 244 244 213 220 228 238 238 247 250 252 272 257 259 251 264 281 277 286 283 271 264 260 262 265 265 266 267 271 272 275 279 280 283 285 286 288 291 292 291 292 295
223 217 222 217 234 243 238 248 240 247 255 260 247 261 257 263 260 270 275 274 278 278 277 270 265 265 268 268 267 269 272 274 276 278 280 282 282 284 284 283 286 291 294 297
227 224 221 224 216 217 233 237 246 244 243 240 239 245 255 268 265 268 268 270 269 270 275 281 271 270 275 276 276 278 277 275 272 276 279 278 278 280 283 287 290 294 296 299
225 219 223 226 217 226 228 225 234 232 240 242 239 244 245 253 263 267 268 266 266 270 274 277 275 273 274 277 280 278 277 275 274 274 277 280 282 284 287 291 293 296 300 301
225 224 228 229 225 231 235 237 240 244 239 245 250 247 246 255 267 269 268 266 268 273 272 271 274 275 276 275 275 274 277 279 280 282 283 284 285 286 289 293 296 296 297 299
230 231 232 233 227 233 238 244 237 235 233 232 233 244 250 257 262 268 272 270 271 271 270 267 268 270 269 268 269 271 273 276 278 278 280 282 286 290 291 292 295 297 296 297
231 237 238 234 222 237 235 239 237 237 234 234 242 250 252 258 261 271 274 275 274 276 272 266 263 262 262 264 265 267 271 273 275 278 282 284 286 289 292 296 296 295 296 297
226 234 237 238 235 227 240 229 243 244 234 236 247 250 253 257 263 270 275 275 277 278 275 268 264 263 263 264 267 268 269 272 276 279 282 286 290 294 295 296 295 294 297 299
231 233 239 239 236 222 217 219 231 244 259 246 249 253 257 260 265 269 273 274 274 275 275 273 270 266 264 266 268 270 273 275 277 281 285 289 292 295 298 295 292 294 296 298
221 226 234 243 245 232 222 233 226 231 247 253 257 255 259 261 264 266 269 271 272 272 272 272 271 272 269 267 268 270 274 278 283 287 290 292 294 296 304 293 289 293 297 299
223 217 228 235 230 193 222 227 231 238 250 256 262 263 263 260 261 265 268 271 272 272 271 270 271 270 270 271 274 276 279 283 287 289 290 293 296 296 304 292 286 291 297 301
232 232 240 239 232 236 246 240 245 242 246 253 259 266 268 263 263 264 266 270 272 272 273 271 271 272 275 277 280 281 282 283 283 286 289 290 291 292 299 300 289 290 296 299
241 244 243 241 246 245 238 236 245 249 254 251 256 264 265 263 265 267 270 272 273 274 275 275 274 274 277 280 281 286 286 287 290 288 291 290 294 298 301 298 290 294 296 298
244 248 246 250 250 252 253 244 245 249 248 248 250 256 258 263 266 274 277 275 272 274 277 277 277 277 278 281 283 287 288 290 287 288 292 297 299 299 296 286 288 293 296 298
243 250 251 254 256 254 254 257 261 259 255 256 256 256 260 269 268 270 273 284 277 272 275 277 279 278 283 281 285 287 291 288 289 293 296 295 294 294 292 288 292 294 295 296
251 255 255 260 249 246 249 253 259 262 264 264 263 260 259 264 270 274 275 281 284 277 274 273 278 282 284 282 286 287 290 291 290 288 290 292 290 289 290 290 293 294 294 298
244 254 257 262 261 253 260 261 258 259 263 268 271 273 272 271 274 275 277 281 283 283 279 284 288 288 290 285 285 280 283 285 283 287 293 290 288 290 292 293 293 292 295 299
251 254 255 252 256 257 254 256 256 258 261 263 265 266 268 268 266 273 276 280 280 279 282 281 275 278 279 275 276 278 278 281 281 281 286 289 291 292 292 292 292 294 298 300
245 246 247 247 248 252 256 257 258 260 263 267 269 269 270 270 271 273 276 273 280 280 277 276 275 275 275 276 276 277 278 281 284 287 290 292 293 292 292 293 295 298 300 302
248 247 247 248 251 256 260 263 264 264 263 267 269 267 268 269 271 270 273 276 274 274 274 274 275 276 277 280 283 284 285 287 289 291 292 292 292 291 293 295 297 300 302 303
255 257 258 259 261 264 263 265 266 269 270 269 274 273 274 274 272 267 265 270 272 275 278 278 279 282 284 286 286 288 289 290 291 292 292 292 293 294 296 298 301 303 303 303
251 256 256 257 260 263 264 264 268 271 271 270 267 267 267 265 266 267 271 274 277 278 279 282 284 285 287 288 289 289 289 290 291 292 293 294 296 298 300 301 301 301 301 302
266 266 265 264 264 265 264 263 263 260 262 264 269 270 268 273 275 276 275 275 279 282 284 284 285 285 286 287 287 288 289 291 293 294 296 298 299 300 299 299 299 300 301 301
261 260 260 262 263 265 267 270 271 271 272 274 274 275 275 276 275 274 276 278 281 282 283 284 285 286 287 288 290 291 292 294 296 297 298 298 298 298 298 298 299 300 300 301
262 262 264 267 268 268 266 268 271 270 272 274 276 276 277 277 277 279 281 282 283 284 286 287 288 290 291 292 294 295 296 296 297 297 297 297 298 298 299 299 299 299 299 300
270 271 273 274 274 275 275 276 277 277 278 278 277 278 278 279 280 282 283 285 287 288 288 289 291 293 294 295 296 296 297 297 297 298 298 298 298 298 298 298 298 297 298 298
275 274 274 273 274 274 275 275 275 276 277 278 280 281 281 283 284 285 286 288 289 291 293 294 295 295 296 296 297 298 298 299 299 299 298 298 298 297 297 296 296 296 297 297
Height
5669 5677 5683 5686 5687 5690 5691 5694 5693 5697 5698 5701 5705 5702 5704 5702 5702 5701 5704 5704 5704 5704 5705 5705 5706 5706 5706 5706 5706 5703 5704 5703 5703 5702 5701 5700 5699 5697 5695 5693 5691 5688 5685 5681
5657 5667 5672 5675 5679 5682 5686 5687 5689 5691 5691 5696 5698 5698 5698 5696 5697 5698 5697 5698 5698 5695 5696 5698 5697 5697 5698 5698 5698 5696 5695 5694 5693 5693 5692 5692 5690 5688 5686 5684 5681 5677 5674 5670
5648 5659 5664 5663 5669 5675 5679 5681 5683 5684 5687 5690 5691 5692 5692 5691 5691 5689 5690 5691 5691 5689 5685 5687 5689 5688 5689 5689 5688 5688 5687 5687 5686 5685 5684 5682 5681 5679 5676 5673 5670 5667 5663 5659
5641 5651 5645 5654 5661 5666 5668 5670 5674 5677 5679 5681 5682 5684 5684 5683 5682 5683 5683 5685 5684 5683 5681 5678 5680 5679 5679 5679 5679 5679 5679 5678 5677 5676 5674 5672 5670 5668 5665 5662 5658 5655 5651 5646
5631 5637 5642 5647 5654 5657 5659 5664 5667 5669 5671 5673 5675 5674 5674 5676 5678 5675 5675 5677 5675 5675 5674 5671 5670 5670 5671 5671 5670 5670 5669 5668 5666 5665 5663 5661 5659 5656 5653 5650 5647 5643 5638 5632
5626 5628 5631 5640 5648 5652 5655 5652 5660 5662 5664 5666 5666 5664 5669 5668 5671 5670 5667 5667 5667 5665 5664 5663 5662 5661 5661 5661 5661 5661 5660 5659 5658 5656 5654 5651 5649 5646 5642 5638 5634 5629 5623 5617
5618 5620 5626 5635 5641 5645 5645 5654 5654 5655 5657 5657 5655 5658 5660 5662 5662 5661 5661 5659 5657 5656 5654 5654 5653 5652 5652 5652 5652 5651 5651 5649 5648 5646 5644 5641 5638 5634 5630 5625 5620 5614 5608 5601
5609 5614 5619 5628 5631 5633 5644 5648 5646 5645 5648 5648 5648 5650 5652 5652 5653 5653 5653 5651 5649 5647 5646 5645 5644 5643 5643 5643 5643 5642 5641 5640 5638 5636 5633 5629 5625 5621 5616 5610 5604 5598 5591 5585
5603 5608 5611 5618 5621 5628 5633 5635 5637 5638 5639 5639 5638 5642 5643 5644 5644 5644 5643 5642 5641 5640 5638 5637 5636 5635 5634 5634 5634 5633 5631 5629 5627 5624 5620 5616 5612 5606 5601 5595 5589 5583 5577 5569
5591 5600 5605 5612 5611 5618 5621 5623 5628 5628 5627 5628 5628 5631 5633 5635 5634 5634 5634 5632 5632 5631 5630 5629 5628 5627 5626 5624 5623 5621 5620 5617 5614 5611 5607 5602 5597 5592 5586 5579 5574 5568 5561 5554
5585 5592 5596 5600 5602 5602 5609 5614 5616 5619 5619 5621 5620 5623 5623 5624 5624 5624 5624 5623 5622 5621 5620 5619 5618 5617 5615 5613 5612 5610 5607 5604 5600 5595 5591 5586 5582 5576 5569 5563 5557 5551 5544 5537
5577 5584 5583 5587 5591 5596 5602 5606 5608 5609 5609 5612 5611 5613 5613 5613 5613 5613 5612 5613 5612 5610 5609 5608 5607 5606 5604 5602 5600 5597 5594 5590 5584 5579 5575 5570 5563 5558 5552 5545 5539 5532 5526 5518
5568 5572 5575 5580 5583 5585 5592 5595 5596 5598 5602 5600 5601 5602 5602 5602 5602 5601 5600 5601 5600 5600 5599 5597 5595 5592 5591 5588 5585 5583 5577 5572 5568 5563 5557 5552 5548 5542 5534 5527 5521 5514 5507 5499
5560 5564 5569 5571 5575 5578 5580 5582 5585 5587 5588 5588 5589 5590 5590 5591 5591 5590 5589 5588 5587 5587 5585 5583 5580 5579 5575 5572 5569 5565 5560 5556 5552 5547 5540 5535 5529 5523 5518 5511 5504 5498 5489 5481
5551 5555 5560 5563 5564 5566 5569 5570 5572 5575 5576 5576 5577 5578 5578 5579 5578 5576 5575 5574 5573 5572 5569 5567 5565 5562 5558 5554 5551 5547 5543 5539 5534 5529 5524 5518 5512 5505 5499 5493 5486 5477 5470 5462
5547 5548 5550 5552 5554 5557 5560 5561 5562 5563 5563 5562 5563 5564 5564 5564 5565 5564 5563 5560 5559 5557 5556 5552 5549 5545 5541 5537 5533 5529 5525 5522 5517 5511 5506 5500 5493 5486 5480 5472 5464 5456 5447 5439
5540 5541 5544 5545 5545 5547 5549 5549 5550 5551 5551 5551 5551 5551 5552 5551 5550 5549 5548 5546 5544 5541 5539 5535 5531 5527 5524 5521 5517 5513 5508 5504 5499 5494 5488 5480 5474 5467 5460 5452 5443 5435 5426 5419
5532 5533 5535 5535 5536 5537 5539 5539 5540 5540 5540 5539 5539 5539 5539 5538 5539 5535 5533 5531 5528 5525 5522 5519 5515 5511 5508 5505 5501 5496 5490 5485 5480 5474 5468 5460 5453 5446 5438 5430 5422 5413 5404 5395
5521 5522 5523 5524 5525 5525 5526 5527 5527 5527 5527 5527 5526 5525 5523 5522 5520 5518 5516 5514 5512 5509 5506 5502 5498 5494 5490 5486 5482 5477 5472 5466 5461 5454 5448 5439 5432 5425 5417 5409 5400 5391 5382 5373
5510 5511 5512 5512 5512 5513 5514 5515 5515 5515 5514 5514 5512 5511 5510 5507 5505 5504 5501 5498 5495 5493 5488 5484 5480 5477 5473 5469 5464 5459 5454 5447 5441 5434 5427 5418 5411 5403 5395 5386 5378 5369 5359 5349
5501 5501 5502 5502 5502 5503 5503 5503 5503 5502 5501 5500 5499 5497 5495 5493 5490 5487 5485 5482 5479 5476 5472 5468 5464 5461 5456 5452 5446 5440 5434 5427 5420 5413 5405 5398 5389 5380 5372 5363 5353 5343 5335 5326
5492 5492 5492 5492 5492 5491 5491 5490 5490 5489 5487 5486 5484 5482 5480 5478 5476 5473 5470 5467 5463 5460 5456 5452 5447 5442 5437 5432 5426 5420 5413 5406 5397 5390 5382 5374 5365 5356 5346 5337 5328 5319 5311 5302
5483 5482 5482 5481 5481 5480 5479 5478 5477 5476 5474 5472 5471 5469 5467 5464 5461 5458 5454 5450 5448 5443 5438 5434 5429 5423 5417 5411 5404 5397 5390 5382 5374 5366 5358 5348 5339 5330 5321 5313 5304 5295 5286 5277
5474 5473 5472 5471 5470 5469 5468 5466 5464 5462 5461 5458 5456 5454 5452 5448 5445 5442 5438 5434 5430 5425 5419 5414 5408 5401 5394 5388 5381 5374 5366 5358 5350 5341 5332 5323 5314 5305 5296 5287 5278 5269 5261 5253
5463 5462 5461 5460 5458 5457 5455 5453 5451 5448 5446 5443 5441 5438 5434 5431 5428 5423 5419 5414 5409 5405 5397 5392 5385 5378 5371 5364 5357 5349 5341 5332 5324 5315 5306 5297 5286 5277 5269 5261 5253 5245 5238 5230
5450 5449 5448 5446 5444 5442 5439 5437 5435 5432 5429 5427 5424 5420 5416 5412 5407 5402 5398 5392 5386 5380 5375 5369 5362 5356 5348 5340 5331 5323 5314 5306 5297 5288 5279 5270 5261 5252 5244 5236 5229 5221 5214 5207
5438 5436 5434 5432 5429 5427 5424 5421 5418 5416 5413 5409 5405 5401 5396 5392 5386 5381 5377 5371 5365 5359 5352 5345 5338 5331 5324 5315 5307 5297 5287 5279 5270 5263 5254 5245 5237 5228 5219 5211 5204 5196 5189 5184